Wetterdaten am Flugplatz MSG Übersee

alte Datensätze gelöscht
51 aktuelle Wetterdateneinträge gefunden

Datum/Uhrzeit   Windrichtung/Grad    Geschw./kmh    Temp./C°    Luftdruck/mbar    Spannung/Volt   
2026-09-06 00:03 SW/245 2 19 1029 12,29
2026-09-06 00:13 W/249 2 19 1029 12,32
2026-09-06 00:23 W/254 4 19 1029 12,35
2026-09-06 00:34 W/263 2 19 1029 12,36
2026-09-06 00:44 W/261 2 19 1029 12,01
2026-09-06 00:54 W/256 5 19 1029 12,20
2026-09-06 01:04 W/250 6 19 1029 12,23
2026-09-06 01:14 W/254 5 19 1029 12,26
2026-09-06 01:24 W/250 6 19 1029 12,27
2026-09-06 01:34 SW/243 7 19 1029 12,30
2026-09-06 01:44 SW/237 8 19 1029 11,89
2026-09-06 01:54 SW/244 7 19 1029 12,18
2026-09-06 02:04 W/252 6 19 1029 12,21
2026-09-06 02:14 SW/245 7 19 1029 12,24
2026-09-06 02:24 SW/243 7 19 1029 12,26
2026-09-06 02:34 SW/242 7 18 1029 12,29
2026-09-06 02:44 SW/242 6 18 1029 12,30
2026-09-06 02:54 SW/242 4 18 1029 11,91
2026-09-06 03:04 SW/242 1 18 1029 12,16
2026-09-06 03:15 SW/247 1 18 1029 12,18
2026-09-06 03:25 NW/322 7 18 1029 12,23
2026-09-06 03:35 SW/246 5 18 1029 12,24
2026-09-06 03:45 S/184 5 18 1029 12,27
2026-09-06 03:55 S/194 5 17 1029 12,30
2026-09-06 04:05 SW/229 3 17 1029 11,83
2026-09-06 04:15 SW/235 2 17 1029 12,14
2026-09-06 04:25 SW/237 4 17 1029 12,17
2026-09-06 04:35 SW/237 3 17 1029 12,20
2026-09-06 04:45 SW/237 1 17 1029 12,21
2026-09-06 04:55 SW/237 1 17 1029 12,24
2026-09-06 05:05 SW/237 0 17 1029 11,85
2026-09-06 05:15 SW/237 0 17 1029 12,13
2026-09-06 05:25 SW/237 0 17 1029 12,16
2026-09-06 05:35 SW/237 2 16 1029 12,18
2026-09-06 05:45 SW/237 1 16 1029 12,20
2026-09-06 05:55 SW/237 0 16 1029 12,07
2026-09-06 06:06 SW/237 0 16 1029 12,13
2026-09-06 06:16 SW/237 1 16 1029 12,16
2026-09-06 06:26 SW/237 0 16 1029 12,17
2026-09-06 06:36 SW/237 0 16 1029 12,07
2026-09-06 06:46 SW/237 2 16 1029 12,11
2026-09-06 06:56 SW/237 1 16 1030 12,14
2026-09-06 07:06 SW/237 0 16 1030 12,16
2026-09-06 07:16 SW/237 2 15 1030 12,05
2026-09-06 07:26 SW/237 4 15 1030 12,10
2026-09-06 07:36 SW/237 1 15 1030 12,13
2026-09-06 07:46 SW/237 1 15 1030 12,16
2026-09-06 07:56 SW/237 2 15 1030 12,05
2026-09-06 08:06 SW/237 0 16 1030 12,13
2026-09-06 08:16 SW/237 0 16 1030 12,14
2026-09-06 08:26 SW/238 2 17 1030 12,20